Rutherfordton, NC

2:01 AM EDT on July 24, 2017 (GMT -0400)
Rutherford County-Marchman

Weather History for KFQD - November, 2013

Change the Weather History Date:

Sunday, November 24, 2013

  Actual Average (KAVL) Record (KAVL)
Temperature  
Mean Temperature 33 °F -  
Max Temperature 42 °F 56 °F 74 °F (1973)
Min Temperature 25 °F 33 °F 8 °F (1950)
Degree Days  
Heating Degree Days 32    
Moisture  
Dew Point 6 °F    
Average Humidity 33    
Maximum Humidity 49    
Minimum Humidity 18    
Precipitation  
Precipitation 0.00 in - - ()
Sea Level Pressure  
Sea Level Pressure 30.40 in    
Wind  
Wind Speed 8 mph (North)    
Max Wind Speed 18 mph    
Max Gust Speed 28 mph    
Visibility 10 miles    
Events      
Averages and records for this station are not official NWS values.
T = Trace of Precipitation, MM = Missing Value Source: NWS Daily Summary

Daily Weather History Graph

Daily Weather History Graph

Search for Another Location

Airport or City:

Trip Planner

Search our weather history database for the weather conditions in past years. The results will help you decide how hot, cold, wet, or windy it might be!

Date:

Astronomy

Nov. 24, 2013 Rise Set
Actual Time 7:12 AM EST 5:16 PM EST
Civil Twilight 6:44 AM EST 5:44 PM EST
Nautical Twilight 6:13 AM EST 6:15 PM EST
Astronomical Twilight 5:42 AM EST 6:45 PM EST
Moon 11:34 PM EST 12:05 PM EST
Length of Visible Light 10h 59m
Length of Day
10h 04m
Waning Gibbous, 61% of the Moon is Illuminated
Nov 24
Waning Gibbous
Nov 25
Last Quarter
Dec 2
New
Dec 9
First Quarter
Dec 17
Full

Hourly Weather History & Observations

Time (EST) Temp. Windchill Dew Point Humidity Pressure Visibility Wind Dir Wind Speed Gust Speed Precip Events Conditions
12:15 AM 38.5 °F 32.7 °F 18.3 °F 44% 30.23 in 10.0 mi North 8.1 mph 17.3 mph N/A   Clear
12:35 AM 37.4 °F 32.1 °F 18.5 °F 46% 30.24 in 10.0 mi North 6.9 mph - N/A   Clear
12:55 AM 36.5 °F 31.0 °F 18.3 °F 48% 30.24 in 10.0 mi North 6.9 mph - N/A   Clear
1:15 AM 36.0 °F 29.6 °F 17.2 °F 47% 30.24 in 10.0 mi North 8.1 mph - N/A   Clear
1:35 AM 36.1 °F 29.9 °F 15.8 °F 44% 30.24 in 10.0 mi North 8.1 mph 16.1 mph N/A   Clear
1:55 AM 35.2 °F 28.8 °F 16.7 °F 47% 30.25 in 10.0 mi North 8.1 mph 16.1 mph N/A   Clear
2:15 AM 34.7 °F 26.9 °F 15.8 °F 46% 30.26 in 10.0 mi North 10.4 mph 19.6 mph N/A   Clear
2:35 AM 33.8 °F 24.3 °F 15.4 °F 47% 30.26 in 10.0 mi North 13.8 mph 18.4 mph N/A   Clear
2:55 AM 33.1 °F 24.4 °F 14.9 °F 47% 30.27 in 10.0 mi North 11.5 mph 21.9 mph N/A   Clear
3:15 AM 32.4 °F 22.5 °F 14.4 °F 48% 30.28 in 10.0 mi NNE 13.8 mph 19.6 mph N/A   Clear
3:35 AM 32.0 °F 20.5 °F 13.5 °F 46% 30.28 in 10.0 mi North 18.4 mph 23.0 mph N/A   Clear
3:55 AM 31.6 °F 20.7 °F 13.1 °F 46% 30.28 in 10.0 mi North 16.1 mph 24.2 mph N/A   Clear
4:15 AM 31.5 °F 20.9 °F 12.9 °F 46% 30.29 in 10.0 mi North 15.0 mph 27.6 mph N/A   Clear
4:35 AM 31.1 °F 22.4 °F 13.1 °F 47% 30.30 in 10.0 mi North 10.4 mph 19.6 mph N/A   Clear
4:55 AM 30.7 °F 20.9 °F 12.2 °F 46% 30.31 in 10.0 mi North 12.7 mph 21.9 mph N/A   Clear
5:15 AM 30.2 °F 24.3 °F 11.1 °F 45% 30.32 in 10.0 mi North 5.8 mph 16.1 mph N/A   Clear
5:35 AM 30.2 °F 21.3 °F 9.9 °F 43% 30.33 in 10.0 mi NNE 10.4 mph - N/A   Clear
5:55 AM 29.7 °F 20.1 °F 9.7 °F 43% 30.34 in 10.0 mi North 11.5 mph 16.1 mph N/A   Clear
6:15 AM 29.3 °F 23.2 °F 9.5 °F 44% 30.35 in 10.0 mi North 5.8 mph 16.1 mph N/A   Clear
6:35 AM 28.9 °F 20.4 °F 9.1 °F 43% 30.36 in 10.0 mi North 9.2 mph 18.4 mph N/A   Clear
6:55 AM 28.8 °F 20.2 °F 7.7 °F 41% 30.37 in 10.0 mi North 9.2 mph 17.3 mph N/A   Clear
7:15 AM 28.4 °F 22.2 °F 7.3 °F 41% 30.38 in 10.0 mi NNW 5.8 mph - N/A   Clear
7:35 AM 29.1 °F 21.3 °F 6.4 °F 38% 30.39 in 10.0 mi North 8.1 mph 16.1 mph N/A   Clear
7:55 AM 29.8 °F 24.9 °F 6.1 °F 37% 30.41 in 10.0 mi North 4.6 mph - N/A   Clear
8:15 AM 31.1 °F 21.9 °F 5.5 °F 34% 30.41 in 10.0 mi North 11.5 mph - N/A   Clear
8:35 AM 30.9 °F 21.7 °F 4.6 °F 33% 30.43 in 10.0 mi North 11.5 mph 18.4 mph N/A   Clear
8:55 AM 31.1 °F 20.9 °F 3.7 °F 31% 30.44 in 10.0 mi North 13.8 mph 20.7 mph N/A   Clear
9:15 AM 32.0 °F 22.1 °F 3.2 °F 30% 30.45 in 10.0 mi North 13.8 mph 21.9 mph N/A   Clear
9:35 AM 32.4 °F 22.5 °F 3.6 °F 30% 30.45 in 10.0 mi North 13.8 mph 21.9 mph N/A   Clear
9:55 AM 32.9 °F 25.3 °F 2.3 °F 27% 30.46 in 10.0 mi North 9.2 mph 24.2 mph N/A   Clear
10:15 AM 33.8 °F 27.0 °F 1.8 °F 26% 30.46 in 10.0 mi North 8.1 mph 20.7 mph N/A   Clear
10:35 AM 34.7 °F 26.4 °F 1.4 °F 24% 30.46 in 10.0 mi North 11.5 mph 16.1 mph N/A   Clear
10:55 AM 35.6 °F 27.5 °F 1.9 °F 24% 30.46 in 10.0 mi NNE 11.5 mph 18.4 mph N/A   Clear
11:15 AM 35.4 °F 27.8 °F 2.5 °F 25% 30.46 in 10.0 mi North 10.4 mph - N/A   Clear
11:35 AM 36.0 °F 28.0 °F 1.4 °F 23% 30.45 in 10.0 mi NNE 11.5 mph 18.4 mph N/A   Clear
11:55 AM 36.7 °F 29.9 °F 0.9 °F 22% 30.44 in 10.0 mi NNE 9.2 mph - N/A   Clear
12:15 PM 38.1 °F 31.2 °F 1.4 °F 21% 30.43 in 10.0 mi North 10.4 mph 16.1 mph N/A   Clear
12:35 PM 38.7 °F 31.4 °F 0.7 °F 20% 30.42 in 10.0 mi NNE 11.5 mph 16.1 mph N/A   Clear
12:55 PM 38.7 °F 31.8 °F 0.3 °F 20% 30.41 in 10.0 mi NNE 10.4 mph 17.3 mph N/A   Clear
1:15 PM 40.6 °F 34.8 °F 3.4 °F 21% 30.41 in 10.0 mi North 9.2 mph - N/A   Clear
1:35 PM 40.1 °F 34.7 °F 0.5 °F 19% 30.40 in 10.0 mi NNW 8.1 mph - N/A   Clear
1:55 PM 41.4 °F 35.2 °F 0.9 °F 18% 30.39 in 10.0 mi North 10.4 mph - N/A   Clear
2:15 PM 41.4 °F 38.4 °F 0.7 °F 18% 30.39 in 10.0 mi NNW 4.6 mph - N/A   Clear
2:35 PM 41.4 °F - 0.5 °F 18% 30.38 in 10.0 mi Calm Calm - N/A   Clear
2:55 PM 41.9 °F 37.5 °F 0.7 °F 18% 30.38 in 10.0 mi North 6.9 mph - N/A   Clear
3:15 PM 41.7 °F 38.0 °F 1.4 °F 19% 30.38 in 10.0 mi North 5.8 mph - N/A   Clear
3:35 PM 41.2 °F 37.3 °F 0.1 °F 18% 30.39 in 10.0 mi ENE 5.8 mph - N/A   Clear
3:55 PM 41.4 °F 38.4 °F 1.4 °F 19% 30.40 in 10.0 mi North 4.6 mph - N/A   Clear
4:15 PM 41.0 °F 35.8 °F 2.3 °F 20% 30.40 in 10.0 mi NNE 8.1 mph - N/A   Clear
4:35 PM 40.3 °F 37.1 °F 1.9 °F 20% 30.40 in 10.0 mi North 4.6 mph - N/A   Clear
4:55 PM 39.2 °F 35.0 °F 2.1 °F 21% 30.41 in 10.0 mi North 5.8 mph - N/A   Clear
5:15 PM 37.8 °F 34.2 °F 2.5 °F 23% 30.41 in 10.0 mi NNE 4.6 mph - N/A   Clear
5:35 PM 36.9 °F 31.4 °F 1.8 °F 23% 30.42 in 10.0 mi NNE 6.9 mph - N/A   Clear
5:55 PM 35.6 °F 30.7 °F 2.1 °F 24% 30.43 in 10.0 mi North 5.8 mph - N/A   Clear
6:15 PM 34.5 °F 30.4 °F 2.3 °F 26% 30.44 in 10.0 mi North 4.6 mph - N/A   Clear
6:35 PM 34.2 °F 28.2 °F 2.3 °F 26% 30.45 in 10.0 mi NNE 6.9 mph - N/A   Clear
6:55 PM 33.3 °F 27.9 °F 2.1 °F 27% 30.46 in 10.0 mi North 5.8 mph - N/A   Clear
7:15 PM 32.7 °F 27.3 °F 2.8 °F 28% 30.46 in 10.0 mi NNE 5.8 mph - N/A   Clear
7:35 PM 32.0 °F 27.5 °F 3.4 °F 30% 30.47 in 10.0 mi North 4.6 mph - N/A   Clear
7:55 PM 31.3 °F - 3.9 °F 31% 30.48 in 10.0 mi Calm Calm - N/A   Clear
8:15 PM 31.1 °F - 3.9 °F 32% 30.48 in 10.0 mi Calm Calm - N/A   Clear
8:35 PM 30.2 °F - 4.5 °F 34% 30.49 in 10.0 mi Calm Calm - N/A   Clear
8:55 PM 28.6 °F - 4.8 °F 36% 30.49 in 10.0 mi Calm Calm - N/A   Clear
9:15 PM 29.3 °F - 4.3 °F 35% 30.49 in 10.0 mi Calm Calm - N/A   Clear
9:35 PM 30.2 °F - 3.2 °F 32% 30.49 in 10.0 mi Calm Calm - N/A   Clear
9:55 PM 29.5 °F 25.9 °F 3.9 °F 34% 30.49 in 10.0 mi NE 3.5 mph - N/A   Clear
10:15 PM 29.5 °F 25.9 °F 4.3 °F 34% 30.48 in 10.0 mi NE 3.5 mph - N/A   Clear
10:35 PM 28.4 °F - 4.6 °F 36% 30.49 in 10.0 mi Calm Calm - N/A   Clear
10:55 PM 26.6 °F - 6.6 °F 43% 30.49 in 10.0 mi Calm Calm - N/A   Clear
11:15 PM 25.7 °F 21.5 °F 8.4 °F 48% 30.49 in 10.0 mi SE 3.5 mph - N/A   Clear
11:35 PM 27.0 °F - 7.7 °F 44% 30.49 in 10.0 mi Calm Calm - N/A   Clear
11:55 PM 26.1 °F - 9.1 °F 49% 30.50 in 10.0 mi Calm Calm - N/A   Clear